| time (UTC) | temp C | wind direction | speed KPH | gust KPH | rain 1hr cm | rain 24hr cm | rain mn cm | humidity % | barometer mb |
| 20260505051520 | 13 | 137 | 0.0 | 1.6 | 0.00 | 0.00 | 0.00 | 65 | 1014.8 |
| 20260505041525 | 16 | 127 | 0.0 | 6.4 | 0.00 | 0.00 | 0.00 | 54 | 1014.5 |
| 20260505040023 | 16 | 134 | 0.0 | 6.4 | 0.00 | 0.00 | 0.00 | 54 | 1014.6 |
| 20260505033022 | 16 | 183 | 1.6 | 6.4 | 0.00 | 0.00 | 0.00 | 53 | 1014.9 |
| 20260505031535 | 16 | 163 | 1.6 | 4.8 | 0.00 | 0.00 | 0.00 | 52 | 1014.8 |
| 20260505024519 | 17 | 174 | 3.2 | 9.7 | 0.00 | 0.00 | 0.00 | 51 | 1014.8 |
| 20260505021527 | 16 | 134 | 1.6 | 8.0 | 0.00 | 0.00 | 0.00 | 53 | 1014.6 |
| 20260505020029 | 16 | 150 | 0.0 | 0.0 | 0.00 | 0.00 | 0.00 | 53 | 1014.5 |
| 20260505013015 | 17 | 134 | 0.0 | 0.0 | 0.00 | 0.00 | 0.00 | 48 | 1014.3 |
| 20260505011523 | 18 | 134 | 0.0 | 1.6 | 0.00 | 0.00 | 0.00 | 45 | 1014.3 |
| 20260505010026 | 18 | 167 | 0.0 | 4.8 | 0.00 | 0.00 | 0.00 | 45 | 1014.1 |
| 20260505004542 | 18 | 157 | 1.6 | 6.4 | 0.00 | 0.00 | 0.00 | 50 | 1013.9 |
| 20260505003023 | 18 | 132 | 3.2 | 6.4 | 0.00 | 0.00 | 0.00 | 47 | 1013.7 |
| 20260505001522 | 19 | 171 | 1.6 | 4.8 | 0.00 | 0.00 | 0.00 | 45 | 1013.5 |
| 20260505000035 | 20 | 159 | 1.6 | 3.2 | 0.00 | 0.00 | 0.00 | 41 | 1013.6 |
| 20260504233014 | 22 | 152 | 0.0 | 3.2 | 0.00 | 0.00 | 0.00 | 37 | 1013.5 |
| 20260504231531 | 22 | 158 | 3.2 | 9.7 | 0.00 | 0.00 | 0.00 | 36 | 1013.3 |
| 20260504230026 | 22 | 163 | 1.6 | 11.3 | 0.00 | 0.00 | 0.00 | 34 | 1013.3 |
| 20260504224526 | 23 | 157 | 3.2 | 11.3 | 0.00 | 0.00 | 0.00 | 34 | 1013.2 |
| 20260504223020 | 23 | 223 | 6.4 | 12.9 | 0.00 | 0.00 | 0.00 | 34 | 1013.3 |
| 20260504221523 | 23 | 138 | 8.0 | 17.7 | 0.00 | 0.00 | 0.00 | 34 | 1013.3 |
| 20260504220020 | 23 | 128 | 1.6 | 14.5 | 0.00 | 0.00 | 0.00 | 35 | 1013.2 |
| 20260504214514 | 23 | 176 | 4.8 | 17.7 | 0.00 | 0.00 | 0.00 | 34 | 1013.3 |
| 20260504213028 | 23 | 126 | 3.2 | 19.3 | 0.00 | 0.00 | 0.00 | 34 | 1013.2 |
| 20260504211510 | 23 | 144 | 8.0 | 16.1 | 0.00 | 0.00 | 0.00 | 34 | 1013.2 |
| 20260504210007 | 24 | 153 | 1.6 | 16.1 | 0.00 | 0.00 | 0.00 | 33 | 1013.3 |
| 20260504204505 | 24 | 117 | 4.8 | 14.5 | 0.00 | 0.00 | 0.00 | 33 | 1013.5 |
| 20260504203007 | 24 | 130 | 1.6 | 16.1 | 0.00 | 0.00 | 0.00 | 36 | 1013.5 |
| 20260504201518 | 24 | 159 | 4.8 | 22.5 | 0.00 | 0.00 | 0.00 | 33 | 1013.8 |
| 20260504200019 | 24 | 150 | 3.2 | 17.7 | 0.00 | 0.00 | 0.00 | 34 | 1014.0 |
| 20260504194514 | 24 | 169 | 3.2 | 11.3 | 0.00 | 0.00 | 0.00 | 36 | 1014.1 |
| 20260504193013 | 24 | 277 | 6.4 | 16.1 | 0.00 | 0.00 | 0.00 | 36 | 1014.3 |
| 20260504191510 | 24 | 131 | 1.6 | 16.1 | 0.00 | 0.00 | 0.00 | 36 | 1014.5 |
| 20260504190007 | 24 | 136 | 1.6 | 11.3 | 0.00 | 0.00 | 0.00 | 35 | 1014.6 |
| 20260504184505 | 24 | 238 | 3.2 | 8.0 | 0.00 | 0.00 | 0.00 | 34 | 1014.7 |
| 20260504183022 | 23 | 111 | 3.2 | 12.9 | 0.00 | 0.00 | 0.00 | 37 | 1015.0 |
| 20260504181522 | 23 | 100 | 0.0 | 9.7 | 0.00 | 0.00 | 0.00 | 37 | 1015.2 |
| 20260504180015 | 23 | 126 | 6.4 | 16.1 | 0.00 | 0.00 | 0.00 | 35 | 1015.3 |
| 20260504174539 | 23 | 148 | 3.2 | 16.1 | 0.00 | 0.00 | 0.00 | 35 | 1015.3 |
| 20260504173010 | 23 | 112 | 3.2 | 9.7 | 0.00 | 0.00 | 0.00 | 35 | 1015.3 |
| 20260504171510 | 23 | 134 | 3.2 | 12.9 | 0.00 | 0.00 | 0.00 | 34 | 1015.6 |
| 20260504081515 | 4 | 157 | 0.0 | 0.0 | 0.00 | 0.00 | 0.00 | 92 | 1016.4 |